This demonstration page uses our WeatherBlox Daily Observations layout. Learn more.

40.92945, -100.16068

Hourly Observations for February 10, 2019

Temp ( °F °C ) Dew Point ( °F °C ) Humidity (%) Winds ( mph kmh ) Pressure ( in mb ) Visibility ( mi km ) Precip ( " mm )
12:15 am 00:15 Clear 30 -1.3 18 -7.6 63 63 SE 15 24 30.13 1020 10 16.0934 0 0
12:35 am 00:35 Clear 29 -1.5 18 -7.6 64 64 SE 13 20 30.14 1021 10 16.0934 0 0
12:55 am 00:55 Clear 30 -1.3 18 -7.6 63 63 SE 13 20 30.13 1020 10 16.0934 0 0
1:15 am 01:15 Clear 29 -1.5 19 -7.5 64 64 SE 10 17 30.12 1020 10 16.0934 0 0
1:35 am 01:35 Clear 29 -1.5 18 -7.6 64 64 SE 10 17 30.11 1020 10 16.0934 0 0
1:55 am 01:55 Clear 29 -1.7 18 -7.6 64 64 SE 14 22 30.09 1019 10 16.0934 0 0
2:15 am 02:15 Clear 28 -2 19 -7.5 66 66 SE 9 15 30.11 1020 10 16.0934 0 0
2:35 am 02:35 Clear 28 -2.3 19 -7.5 68 68 ESE 10 17 30.11 1020 10 16.0934 0 0
2:55 am 02:55 Clear 28 -2.5 18 -7.6 68 68 SE 9 15 30.1 1019 10 16.0934 0 0
3:15 am 03:15 Clear 28 -2.5 18 -7.6 68 68 SE 10 17 30.09 1019 10 16.0934 0 0
3:35 am 03:35 Clear 27 -3 18 -7.6 71 71 ESE 8 13 30.1 1019 10 16.0934 0 0
3:55 am 03:55 Mostly Cloudy 27 -2.8 19 -7.5 70 70 ESE 7 11 30.09 1019 10 16.0934 0 0
4:15 am 04:15 Cloudy 28 -2.5 19 -7.4 69 69 ESE 7 11 30.09 1019 10 16.0934 0 0
4:35 am 04:35 Cloudy 28 -2.5 19 -7.2 70 70 ESE 7 11 30.09 1019 10 16.0934 0 0
4:55 am 04:55 Cloudy 28 -2.5 19 -7.1 71 71 E 5 7 30.1 1019 10 16.0934 0 0
5:15 am 05:15 Cloudy 27 -2.6 20 -6.9 73 73 NNE 5 7 30.11 1020 10 16.0934 0 0
5:35 am 05:35 Cloudy 28 -2.5 20 -6.6 74 74 N 7 11 30.12 1020 10 16.0934 0 0
5:55 am 05:55 Cloudy 28 -2.5 20 -6.7 73 73 NNE 9 15 30.12 1020 10 16.0934 0 0
6:15 am 06:15 Cloudy 27 -2.7 19 -7 73 73 N 9 15 30.13 1020 10 16.0934 0 0
6:35 am 06:35 Cloudy 27 -2.8 19 -7.2 72 72 N 13 20 30.15 1021 10 16.0934 0 0
6:55 am 06:55 Cloudy 25 -4 19 -7.5 77 77 N 10 17 30.14 1021 10 16.0934 0 0
7:15 am 07:15 Cloudy 25 -4 19 -7.2 79 79 NNE 7 11 30.14 1021 10 16.0934 0 0
7:35 am 07:35 Cloudy 25 -3.7 19 -7 78 78 NNE 7 11 30.13 1020 10 16.0934 0 0
7:55 am 07:55 Cloudy 25 -4 19 -7.2 79 79 N 8 13 30.17 1022 10 16.0934 0 0
8:15 am 08:15 Cloudy 24 -4.2 19 -7.3 79 79 NNW 10 17 30.18 1022 10 16.0934 0 0
8:35 am 08:35 Cloudy 24 -4.4 19 -7.5 79 79 N 13 20 30.19 1022 10 16.0934 0 0
8:55 am 08:55 Cloudy 24 -4.5 19 -7.5 80 80 N 12 19 30.2 1023 10 16.0934 0 0
9:15 am 09:15 Cloudy 24 -4.5 19 -7.5 80 80 NNW 14 22 30.21 1023 10 16.0934 0 0
9:35 am 09:35 Cloudy 24 -4.5 18 -7.7 79 79 NNW 10 17 30.22 1023 10 16.0934 0 0
9:55 am 09:55 Cloudy 24 -4.6 18 -7.9 78 78 NNW 9 15 30.22 1023 10 16.0934 0 0
10:15 am 10:15 Cloudy 24 -4.3 18 -7.7 77 77 N 9 15 30.22 1023 10 16.0934 0 0
10:35 am 10:35 Cloudy 24 -4.3 18 -7.9 76 76 N 10 17 30.23 1024 10 16.0934 0 0
10:55 am 10:55 Cloudy 24 -4.3 17 -8.1 75 75 NNW 10 17 30.23 1024 10 16.0934 0 0
11:15 am 11:15 Cloudy 24 -4.2 17 -8.3 73 73 N 9 15 30.23 1024 10 16.0934 0 0
11:35 am 11:35 Cloudy 25 -3.9 17 -8.5 71 71 NNW 12 19 30.24 1024 10 16.0934 0 0
11:55 am 11:55 Cloudy 25 -3.9 17 -8.5 71 71 NNW 9 15 30.24 1024 10 16.0934 0 0
12:15 pm 12:15 Cloudy 26 -3.4 17 -8.4 69 69 NNW 9 15 30.23 1024 10 16.0934 0 0
12:35 pm 12:35 Cloudy 26 -3.2 17 -8.5 67 67 NNW 12 19 30.22 1023 10 16.0934 0 0
12:55 pm 12:55 Cloudy 26 -3.1 17 -8.5 67 67 N 8 13 30.23 1024 10 16.0934 0 0
1:15 pm 13:15 Cloudy 28 -2.5 17 -8.4 64 64 NNW 9 15 30.2 1023 10 16.0934 0 0
1:35 pm 13:35 Cloudy 28 -2.4 17 -8.6 63 63 N 7 11 30.18 1022 10 16.0934 0 0
1:55 pm 13:55 Cloudy 28 -2.3 16 -8.8 61 61 NNW 6 9 30.18 1022 10 16.0934 0 0
2:15 pm 14:15 Cloudy 28 -2.3 16 -8.9 61 61 N 5 7 30.18 1022 10 16.0934 0 0
2:35 pm 14:35 Mostly Cloudy 29 -1.7 17 -8.5 60 60 N 9 15 30.16 1021 10 16.0934 0 0
2:55 pm 14:55 Mostly Cloudy 29 -1.9 16 -8.7 60 60 NNE 6 9 30.16 1021 10 16.0934 0 0
3:15 pm 15:15 Mostly Cloudy 29 -1.9 16 -8.8 60 60 N 9 15 30.15 1021 10 16.0934 0 0
3:35 pm 15:35 Cloudy 28 -2 17 -8.6 61 61 NE 9 15 30.15 1021 10 16.0934 0 0
3:55 pm 15:55 Cloudy 28 -2.5 16 -8.8 62 62 NE 7 11 30.16 1021 10 16.0934 0 0
4:15 pm 16:15 Cloudy 27 -2.7 16 -8.7 64 64 ENE 7 11 30.15 1021 10 16.0934 0 0
4:35 pm 16:35 Cloudy 27 -2.8 17 -8.6 65 65 ENE 6 9 30.17 1022 10 16.0934 0 0
4:55 pm 16:55 Cloudy 27 -2.7 16 -8.7 64 64 ENE 7 11 30.16 1021 10 16.0934 0 0
5:15 pm 17:15 Cloudy 27 -2.9 17 -8.5 66 66 NE 5 7 30.17 1022 10 16.0934 0 0
5:35 pm 17:35 Cloudy 27 -2.7 17 -8.1 67 67 NE 8 13 30.13 1020 10 16.0934 0 0
6:15 pm 18:15 Mostly Cloudy 26 -3.6 17 -8.1 71 71 ENE 7 11 30.16 1021 10 16.0934 0 0
6:35 pm 18:35 Cloudy 26 -3.5 17 -8.2 70 70 ENE 7 11 30.16 1021 10 16.0934 0 0
6:55 pm 18:55 Cloudy 26 -3.5 17 -8.1 71 71 E 7 11 30.17 1022 10 16.0934 0 0
7:15 pm 19:15 Cloudy 26 -3.5 17 -8.3 70 70 E 7 11 30.17 1022 10 16.0934 0 0
7:35 pm 19:35 Cloudy 26 -3.6 18 -8 72 72 ENE 6 9 30.17 1022 10 16.0934 0 0
7:55 pm 19:55 Cloudy 25 -3.8 17 -8.1 72 72 E 12 19 30.17 1022 10 16.0934 0 0
8:15 pm 20:15 Mostly Cloudy 23 -4.8 17 -8.2 77 77 E 12 19 30.17 1022 10 16.0934 0 0
8:35 pm 20:35 Partly Cloudy 22 -5.5 17 -8.5 80 80 E 10 17 30.18 1022 10 16.0934 0 0
8:55 pm 20:55 Partly Cloudy 21 -6 17 -8.5 83 83 E 8 13 30.2 1023 10 16.0934 0 0
9:15 pm 21:15 Cloudy 21 -6.2 17 -8.5 84 84 E 10 17 30.19 1022 10 16.0934 0 0
9:35 pm 21:35 Cloudy 22 -5.6 19 -7.5 87 87 E 8 13 30.16 1021 10 16.0934 0 0
9:55 pm 21:55 Cloudy 22 -5.5 19 -7.2 88 88 E 8 13 30.16 1021 10 16.0934 0 0
10:15 pm 22:15 Cloudy 23 -5 20 -6.7 88 88 E 9 15 30.15 1021 10 16.0934 0 0
10:35 pm 22:35 Cloudy 23 -4.9 20 -6.5 89 89 E 12 19 30.14 1021 10 16.0934 0 0
10:55 pm 22:55 Cloudy 23 -4.8 21 -6.1 91 91 E 8 13 30.14 1021 7 11.26538 0 0
11:15 pm 23:15 Cloudy with Mist and Fog 23 -4.8 22 -5.8 93 93 E 9 15 30.14 1021 2 3.21868 0 0
11:35 pm 23:35 Cloudy with Mist and Fog 24 -4.6 22 -5.6 93 93 E 12 19 30.12 1020 1.75 2.816345 0 0
11:55 pm 23:55 Cloudy with Mist and Fog 24 -4.7 22 -5.7 93 93 E 10 17 30.12 1020 1.5 2.41401 0 0

Powered by AerisWeather